PSLV R/B, 37390

Orbit data source: Space-Track

PSLV R/B, 37390 is space debris in SSO originally from a launch on Wed, 20 Apr 2011 UTC launched from the Sirharikota (SRI). Debris objects in space refer to the collection of defunct objects orbiting the Earth. Examples of debris include non-operational satellites, rocket bodies, and fragments generated from explosions, collisions, or faulty payload assembly.

Loading next visibility...
Identifier
37390, 2011-015D
Orbit
SSO
Country
Flag of ININ / IND
Related business
Manufacturer
VSSC/LPSC
Mission
Spacecraft
Bus & Motor
PS-4, Unknown motor
Mass
920 kg wet, 920 kg dry
Launch date (UTC)
2011-04-20 (15 years ago)
Launch vehicle
Unknown
Launch site
Sirharikota (SRI)
Object type
Payload
Rocket body
Debris
Shape & HBR
Cyl + Cyl + 2 Nozzle, 1.6 m
Radar Cross Section
3.727 m², Large (>1 m²)

Expand to show TLE details & history
Last TLE update: 18 hours ago

TLE from 18 hours ago
0 PSLV R/B
1 37390U 11015D   25348.85776429  .00000173  00000-0  86057-4 0  9991
2 37390  98.4856 298.6249 0019282  95.7947 318.7112 14.28261129763518
Epoch: 2025-12-14T20:35Z
TLE epoch observation values (Epoch: 2025-12-14T20:35:10.834Z)
Latitude
53.59525°
Longitude
-105.54505°
Altitude
795.925 km
Speed
7.466 km/s
True Right ascension
19h 08m 03s
True Declination
53° 25' 54"
Sunlit
Object was in daylight at epoch
Visualization orbit readout
Latitude
Unknown
Longitude
Unknown
Altitude
Unknown
Speed
Unknown
Apparent Right ascension
Unknown
Apparent Declination
Unknown
Sunlit
N/A
Visualization observer readout
Local Sidereal Time
13:25:37
Azimuth
Unknown
Elevation
Unknown
Doppler factor
Unknown
Orbital elements
Apogee altitude
808.517 km
Perigee altitude
780.855 km
Semi-major axis
7,172.823 km
Eccentricity
0.00193
Inclination
98.4856°
RAAN
298.6249°
Arg. of periapsis
95.7947°
True anomaly
318.56514°
Mean anomaly
318.7112°
Eccentric anomaly
318.6382°
Mean motion
3.57279 °/min
Orbital period
100.76 mins
BSTAR
0.000086057
Loading maneuver chart data...
Computing Atmospheric mass density...
Loading historical data...
Loading historical data...
Loading historical data...
Loading historical data...
Loading historical data...
Loading historical data...
Loading historical data...
Other satellites on launch #15 in the year 2011 (2011-04-20 UTC)

Documentation

Showing up to 5 results
|